User: anonymous   Login
Location: ?ejkovice
(49.0137°N, 14.3821°E)
Time: 20:27:34
(UTC+00:00)
Language:

Cosmos 1242 Rocket - Orbit

View from above orbital plane
View from above orbital plane
View from above satellite
View from above satellite

Ground track
Ground track

The orbit data is extracted from the following two-line orbital elements,

1 12155U 81008B   24199.52420215  .00201814  13507-4  69351-3 0  9990
2 12155  81.1388 193.2331 0007090  93.8232 266.3846 15.89499382358313
Epoch (UTC): 17 July 2024 12:34:51
Eccentricity: 0.0007090
inclination: 81.1388°
perigee height: 299 km
apogee height: 308 km
right ascension of ascending node: 193.2331°
argument of perigee: 93.8232°
revolutions per day: 15.89499382
mean anomaly at epoch: 266.3846°
orbit number at epoch: 35831

The dashed part of the orbit path shows where the satellite is in the earth's shadow,  

DLR